Location: Marsån
(66.4167°N, 22.2833°E)
Time: 09:45:10
(UTC+00:00)

Cosmos 1626 Rocket - Pass Details

Date: 24 February 2024
Orbit: 600 x 628 km, 82.5° (Epoch: 15 April)

Event Time Altitude Azimuth Distance (km) Brightness Sun altitude
Rises 16:43:53 0° 185° (S) 2,911 7.1 -8.6°
Reaches altitude 10° 16:46:07 10° 183° (S) 2,005 6.3 -8.9°
Maximum altitude 16:50:31 65° 102° (ESE) 691 3.6 -9.3°
Drops below altitude 10° 16:54:55 10° 21° (NNE) 2,003 6.0 -9.7°
Sets 16:57:09 0° 19° (NNE) 2,908 6.8 -10.0°
